Voltar ao catálogo

STARLINK-11303

AtivoComunicaçõesVLEO
NORAD 62096·PAYLOAD·🇺🇸 United States

Lançado Nov 25, 2024 de Cape Canaveral Space Force Station

Loading…

Próximas Passagens (próximas 24 horas)

TLE

AtualizadoSource: CelesTrak SupGP

Época: Sep 14, 2026, 14:47 UTC

1 62096C 24220J   26257.61645833  .00052574  00000+0  40867-3 0  2578
2 62096  43.0007 344.0641 0001548 284.1627 267.2911 15.70793494    17

Acompanhe STARLINK-11303 em tempo real com AllMySat

Download on the App Store